Location: B�hl
(48.6968°N, 8.1352°E)
Time: 23:01:02
(UTC+00:00)

Cosmos 1943 Rocket - Pass Details

Date: 08 March 2021
Orbit: 811 x 844 km, 71.0° (Epoch: 20 April)

Event Time Altitude Azimuth Distance (km) Brightness Sun altitude
Rises 20:50:53 0° 330° (NNW) 3,414 6.3 -33.4°
Reaches altitude 10° 20:53:21 10° 329° (NNW) 2,473 5.3 -33.7°
Enters shadow 20:57:11 44° 320° (NW) 1,150 3.1 -34.2°
